OPS 4682 DEB, 38398

Orbit data source: Space-Track

OPS 4682 DEB, 38398 is space debris in LEO originally from a launch on Sat, 03 Apr 1965 UTC launched from the Air Force Western Test Range (AFWTR). Debris objects in space refer to the collection of defunct objects orbiting the Earth. Examples of debris include non-operational satellites, rocket bodies, and fragments generated from explosions, collisions, or faulty payload assembly.

Loading next visibility...
Identifier
38398, 1965-027DB
Orbit
LEO
Country
Flag of USUS
Related business
Manufacturer
Unknown
Mission
Spacecraft
Bus & Motor
Unknown
Mass
Unknown
Launch date (UTC)
1965-04-03 (61 years ago)
Launch vehicle
Unknown
Launch site
Air Force Western Test Range (AFWTR)
Object type
Payload
Rocket body
Debris
Shape & HBR
Unknown shape, 0.1 m
Radar Cross Section
Small (<0.1 m²)

Expand to show TLE details & history
Last TLE update: 17 hours ago

TLE from 17 hours ago
0 OPS 4682 DEB
1 38398U 65027DB  26119.13619886 -.00000770  00000-0 -26895-2 0  9990
2 38398  90.2694  16.6528 0015847 242.3712 117.5800 12.97139284656899
Epoch: 2026-04-29T03:16Z
TLE epoch observation values (Epoch: 2026-04-29T03:16:07.581Z)
Latitude
-0.00002°
Longitude
110.51972°
Altitude
1,281.825 km
Speed
7.212 km/s
True Right ascension
01h 06m 36s
True Declination
0° 00' 00"
Sunlit
Object was in daylight at epoch
Visualization orbit readout
Latitude
Unknown
Longitude
Unknown
Altitude
Unknown
Speed
Unknown
Apparent Right ascension
Unknown
Apparent Declination
Unknown
Sunlit
N/A
Visualization observer readout
Local Sidereal Time
03:43:15
Azimuth
Unknown
Elevation
Unknown
Doppler factor
Unknown
Orbital elements
Apogee altitude
1,282.568 km
Perigee altitude
1,258.326 km
Semi-major axis
7,648.584 km
Eccentricity
0.00158
Inclination
90.2694°
RAAN
16.6528°
Arg. of periapsis
242.3712°
True anomaly
117.74081°
Mean anomaly
117.58°
Eccentric anomaly
117.66042°
Mean motion
3.24468 °/min
Orbital period
110.95 mins
BSTAR
-0.0026895
Loading maneuver chart data...
Computing Atmospheric mass density...
Loading historical data...
Loading historical data...
Loading historical data...
Loading historical data...
Loading historical data...
Loading historical data...
Loading historical data...

Documentation

Showing up to 5 results
|